Time,TemperatureF,DewpointF,PressureIn,WindDirection,WindDirectionDegrees,WindSpeedMPH,WindSpeedGustMPH,Humidity,HourlyPrecipIn,Conditions,Clouds,dailyrainin,SolarRadiationWatts/m^2,SoftwareType,DateUTC
2013-06-25 00:11:00,68.7,65.0,29.93,West,275,6.0,18.0,88,0.00,,,0.00,0,weatherlink.com 1.10,2013-06-25 04:11:00,
2013-06-25 00:26:00,68.8,64.0,29.92,West,271,9.0,12.0,85,0.00,,,0.00,0,weatherlink.com 1.10,2013-06-25 04:26:00,
2013-06-25 00:41:00,68.3,64.0,29.91,West,277,6.0,11.0,86,0.00,,,0.00,0,weatherlink.com 1.10,2013-06-25 04:41:00,
2013-06-25 00:56:00,68.2,64.0,29.90,WSW,245,6.0,9.0,86,0.00,,,0.00,0,weatherlink.com 1.10,2013-06-25 04:56:00,
2013-06-25 01:11:00,68.9,63.0,29.89,WSW,250,5.0,8.0,82,0.00,,,0.00,0,weatherlink.com 1.10,2013-06-25 05:11:00,
2013-06-25 01:26:00,68.8,63.0,29.89,West,269,14.0,15.0,81,0.00,,,0.00,0,weatherlink.com 1.10,2013-06-25 05:26:00,
2013-06-25 01:41:00,69.3,62.0,29.89,West,260,11.0,15.0,78,0.00,,,0.00,0,weatherlink.com 1.10,2013-06-25 05:41:00,
2013-06-25 01:57:00,69.6,62.0,29.88,West,264,16.0,18.0,76,0.00,,,0.00,0,weatherlink.com 1.10,2013-06-25 05:57:00,
2013-06-25 02:12:00,69.4,62.0,29.88,West,265,17.0,20.0,78,0.00,,,0.00,0,weatherlink.com 1.10,2013-06-25 06:12:00,
2013-06-25 02:27:00,68.6,63.0,29.88,West,276,15.0,19.0,81,0.00,,,0.00,0,weatherlink.com 1.10,2013-06-25 06:27:00,
2013-06-25 02:42:00,68.6,62.0,29.89,West,264,15.0,23.0,80,0.00,,,0.00,0,weatherlink.com 1.10,2013-06-25 06:42:00,
2013-06-25 02:57:00,68.8,62.0,29.89,West,275,13.0,20.0,80,0.00,,,0.00,0,weatherlink.com 1.10,2013-06-25 06:57:00,
2013-06-25 03:12:00,68.3,62.0,29.89,West,269,13.0,16.0,81,0.00,,,0.00,0,weatherlink.com 1.10,2013-06-25 07:12:00,
2013-06-25 03:27:00,68.0,63.0,29.89,West,267,11.0,17.0,83,0.00,,,0.00,0,weatherlink.com 1.10,2013-06-25 07:27:00,
2013-06-25 03:42:00,67.8,63.0,29.89,West,264,11.0,15.0,84,0.00,,,0.00,0,weatherlink.com 1.10,2013-06-25 07:42:00,
2013-06-25 03:57:00,68.4,63.0,29.89,West,267,10.0,15.0,83,0.00,,,0.00,0,weatherlink.com 1.10,2013-06-25 07:57:00,
2013-06-25 04:12:00,68.0,63.0,29.88,West,263,7.0,13.0,84,0.00,,,0.00,0,weatherlink.com 1.10,2013-06-25 08:12:00,
2013-06-25 04:27:00,67.9,63.0,29.88,WSW,248,12.0,17.0,85,0.00,,,0.00,0,weatherlink.com 1.10,2013-06-25 08:27:00,
2013-06-25 04:42:00,67.5,63.0,29.88,WSW,255,13.0,17.0,86,0.00,,,0.00,0,weatherlink.com 1.10,2013-06-25 08:42:00,
2013-06-25 04:57:00,67.5,64.0,29.88,WSW,238,10.0,19.0,87,0.00,,,0.00,0,weatherlink.com 1.10,2013-06-25 08:57:00,
2013-06-25 05:12:00,67.7,64.0,29.88,WSW,257,8.0,20.0,87,0.00,,,0.00,7,weatherlink.com 1.10,2013-06-25 09:12:00,
2013-06-25 05:27:00,67.5,64.0,29.88,WSW,254,12.0,17.0,88,0.00,,,0.00,23,weatherlink.com 1.10,2013-06-25 09:27:00,
2013-06-25 05:42:00,67.6,64.0,29.88,WSW,252,12.0,15.0,88,0.00,,,0.00,33,weatherlink.com 1.10,2013-06-25 09:42:00,
2013-06-25 05:57:00,67.7,64.0,29.88,West,266,15.0,20.0,88,0.00,,,0.00,37,weatherlink.com 1.10,2013-06-25 09:57:00,
2013-06-25 06:12:00,68.5,65.0,29.88,West,272,12.0,20.0,87,0.00,,,0.00,84,weatherlink.com 1.10,2013-06-25 10:12:00,
2013-06-25 06:27:00,69.6,65.0,29.88,West,265,11.0,17.0,85,0.00,,,0.00,116,weatherlink.com 1.10,2013-06-25 10:27:00,
2013-06-25 06:42:00,68.9,65.0,29.88,West,261,12.0,19.0,86,0.00,,,0.00,148,weatherlink.com 1.10,2013-06-25 10:42:00,
2013-06-25 06:57:00,69.0,65.0,29.88,West,267,11.0,16.0,86,0.00,,,0.00,83,weatherlink.com 1.10,2013-06-25 10:57:00,
2013-06-25 07:12:00,69.1,65.0,29.88,WSW,255,9.0,19.0,86,0.00,,,0.00,250,weatherlink.com 1.10,2013-06-25 11:12:00,
2013-06-25 07:27:00,69.3,65.0,29.87,WSW,249,8.0,18.0,86,0.00,,,0.00,272,weatherlink.com 1.10,2013-06-25 11:27:00,
2013-06-25 07:42:00,69.7,65.0,29.87,West,263,12.0,15.0,85,0.00,,,0.00,309,weatherlink.com 1.10,2013-06-25 11:42:00,
2013-06-25 07:57:00,70.0,65.0,29.87,SW,236,14.0,18.0,85,0.00,,,0.00,360,weatherlink.com 1.10,2013-06-25 11:57:00,
2013-06-25 08:12:00,71.2,66.0,29.87,West,274,9.0,21.0,82,0.00,,,0.00,420,weatherlink.com 1.10,2013-06-25 12:12:00,
2013-06-25 08:28:00,72.1,66.0,29.87,West,265,8.0,16.0,81,0.00,,,0.00,441,weatherlink.com 1.10,2013-06-25 12:28:00,
2013-06-25 08:43:00,73.3,66.0,29.86,WSW,256,4.0,18.0,78,0.00,,,0.00,522,weatherlink.com 1.10,2013-06-25 12:43:00,
2013-06-25 08:58:00,73.0,66.0,29.87,West,265,11.0,18.0,78,0.00,,,0.00,531,weatherlink.com 1.10,2013-06-25 12:58:00,
2013-06-25 09:28:00,73.3,67.0,29.86,WSW,257,9.0,14.0,81,0.00,,,0.00,429,weatherlink.com 1.10,2013-06-25 13:28:00,
2013-06-25 09:43:00,73.4,67.0,29.86,West,277,11.0,13.0,81,0.00,,,0.00,555,weatherlink.com 1.10,2013-06-25 13:43:00,
2013-06-25 09:58:00,73.8,67.0,29.86,West,261,9.0,15.0,80,0.00,,,0.00,471,weatherlink.com 1.10,2013-06-25 13:58:00,
2013-06-25 10:13:00,74.4,68.0,29.86,West,274,8.0,12.0,80,0.00,,,0.00,499,weatherlink.com 1.10,2013-06-25 14:13:00,
2013-06-25 10:28:00,75.9,69.0,29.87,West,261,10.0,17.0,78,0.00,,,0.00,742,weatherlink.com 1.10,2013-06-25 14:28:00,
2013-06-25 10:43:00,75.8,68.0,29.87,SW,234,5.0,16.0,76,0.00,,,0.00,737,weatherlink.com 1.10,2013-06-25 14:43:00,
2013-06-25 10:58:00,76.5,68.0,29.88,West,268,9.0,15.0,75,0.00,,,0.00,710,weatherlink.com 1.10,2013-06-25 14:58:00,
2013-06-25 11:13:00,77.4,69.0,29.88,SW,231,10.0,14.0,76,0.00,,,0.00,816,weatherlink.com 1.10,2013-06-25 15:13:00,
2013-06-25 11:28:00,77.5,70.0,29.87,West,277,8.0,16.0,77,0.00,,,0.00,807,weatherlink.com 1.10,2013-06-25 15:28:00,
2013-06-25 11:43:00,78.8,70.0,29.87,West,270,6.0,15.0,74,0.00,,,0.00,810,weatherlink.com 1.10,2013-06-25 15:43:00,
2013-06-25 11:58:00,79.4,70.0,29.86,West,271,8.0,14.0,73,0.00,,,0.00,861,weatherlink.com 1.10,2013-06-25 15:58:00,
2013-06-25 12:13:00,80.3,69.0,29.86,West,277,5.0,14.0,69,0.00,,,0.00,888,weatherlink.com 1.10,2013-06-25 16:13:00,
2013-06-25 12:28:00,80.2,69.0,29.86,West,267,7.0,18.0,68,0.00,,,0.00,800,weatherlink.com 1.10,2013-06-25 16:28:00,
2013-06-25 12:43:00,81.4,69.0,29.86,West,275,12.0,15.0,66,0.00,,,0.00,877,weatherlink.com 1.10,2013-06-25 16:43:00,
2013-06-25 12:58:00,82.1,69.0,29.85,West,271,7.0,13.0,64,0.00,,,0.00,933,weatherlink.com 1.10,2013-06-25 16:58:00,
2013-06-25 13:13:00,82.2,69.0,29.84,West,273,8.0,13.0,65,0.00,,,0.00,939,weatherlink.com 1.10,2013-06-25 17:13:00,
2013-06-25 13:28:00,82.8,69.0,29.83,WSW,253,6.0,11.0,64,0.00,,,0.00,844,weatherlink.com 1.10,2013-06-25 17:28:00,
2013-06-25 13:43:00,82.8,69.0,29.82,WSW,246,4.0,14.0,63,0.00,,,0.00,404,weatherlink.com 1.10,2013-06-25 17:43:00,
2013-06-25 13:58:00,81.7,70.0,29.82,SW,223,5.0,12.0,68,0.00,,,0.00,197,weatherlink.com 1.10,2013-06-25 17:58:00,
2013-06-25 14:14:00,83.4,70.0,29.81,West,271,13.0,16.0,64,0.00,,,0.00,891,weatherlink.com 1.10,2013-06-25 18:14:00,
2013-06-25 14:29:00,83.2,69.0,29.80,WSW,244,8.0,18.0,62,0.00,,,0.00,877,weatherlink.com 1.10,2013-06-25 18:29:00,
2013-06-25 14:44:00,83.4,69.0,29.79,WSW,238,15.0,18.0,62,0.00,,,0.00,853,weatherlink.com 1.10,2013-06-25 18:44:00,
2013-06-25 14:59:00,83.6,69.0,29.79,West,261,13.0,17.0,61,0.00,,,0.00,831,weatherlink.com 1.10,2013-06-25 18:59:00,
2013-06-25 15:14:00,84.2,67.0,29.78,West,280,5.0,19.0,57,0.00,,,0.00,777,weatherlink.com 1.10,2013-06-25 19:14:00,
2013-06-25 15:29:00,84.2,68.0,29.77,West,265,17.0,21.0,58,0.00,,,0.00,761,weatherlink.com 1.10,2013-06-25 19:29:00,
2013-06-25 15:44:00,84.4,67.0,29.77,WSW,257,14.0,21.0,56,0.00,,,0.00,733,weatherlink.com 1.10,2013-06-25 19:44:00,
2013-06-25 15:59:00,83.5,66.0,29.76,West,270,11.0,17.0,56,0.00,,,0.00,480,weatherlink.com 1.10,2013-06-25 19:59:00,
2013-06-25 16:14:00,83.1,65.0,29.77,WSW,256,14.0,25.0,54,0.00,,,0.00,366,weatherlink.com 1.10,2013-06-25 20:14:00,
2013-06-25 16:29:00,82.2,65.0,29.76,WSW,251,11.0,21.0,56,0.00,,,0.00,244,weatherlink.com 1.10,2013-06-25 20:29:00,
2013-06-25 16:44:00,81.8,66.0,29.76,West,261,11.0,18.0,59,0.00,,,0.00,251,weatherlink.com 1.10,2013-06-25 20:44:00,
2013-06-25 16:59:00,81.2,66.0,29.75,West,270,6.0,19.0,60,0.00,,,0.00,97,weatherlink.com 1.10,2013-06-25 20:59:00,
2013-06-25 17:14:00,80.7,66.0,29.76,West,279,9.0,20.0,61,0.00,,,0.00,95,weatherlink.com 1.10,2013-06-25 21:14:00,
2013-06-25 17:29:00,80.3,67.0,29.75,WSW,244,13.0,17.0,63,0.00,,,0.00,144,weatherlink.com 1.10,2013-06-25 21:29:00,
2013-06-25 17:44:00,80.0,66.0,29.75,WNW,294,15.0,22.0,63,0.00,,,0.00,77,weatherlink.com 1.10,2013-06-25 21:44:00,
2013-06-25 17:59:00,78.7,66.0,29.76,West,260,7.0,17.0,66,0.00,,,0.00,28,weatherlink.com 1.10,2013-06-25 21:59:00,
2013-06-25 18:14:00,73.1,67.0,29.77,WNW,294,27.0,32.0,82,0.01,,,0.01,14,weatherlink.com 1.10,2013-06-25 22:14:00,
2013-06-25 18:29:00,69.1,66.0,29.78,SW,229,17.0,38.0,91,0.02,,,0.02,19,weatherlink.com 1.10,2013-06-25 22:29:00,
2013-06-25 18:44:00,67.6,65.0,29.78,West,265,10.0,15.0,91,0.03,,,0.03,60,weatherlink.com 1.10,2013-06-25 22:44:00,
2013-06-25 18:59:00,68.3,65.0,29.78,WNW,287,8.0,17.0,90,0.03,,,0.03,39,weatherlink.com 1.10,2013-06-25 22:59:00,
2013-06-25 19:14:00,68.4,66.0,29.77,WNW,282,4.0,8.0,91,0.02,,,0.03,23,weatherlink.com 1.10,2013-06-25 23:14:00,
2013-06-25 19:29:00,68.3,66.0,29.80,West,269,14.0,24.0,92,0.01,,,0.03,0,weatherlink.com 1.10,2013-06-25 23:29:00,
2013-06-25 19:44:00,67.3,66.0,29.78,West,266,19.0,23.0,94,0.01,,,0.04,0,weatherlink.com 1.10,2013-06-25 23:44:00,
2013-06-25 19:59:00,66.8,65.0,29.77,NW,305,1.0,13.0,95,0.02,,,0.05,7,weatherlink.com 1.10,2013-06-25 23:59:00,
2013-06-25 20:14:00,66.5,65.0,29.76,WNW,303,3.0,10.0,96,0.02,,,0.05,7,weatherlink.com 1.10,2013-06-26 00:14:00,
2013-06-25 20:29:00,66.1,65.0,29.76,NW,307,2.0,7.0,95,0.02,,,0.05,0,weatherlink.com 1.10,2013-06-26 00:29:00,
2013-06-25 20:44:00,66.1,64.0,29.76,NW,307,0.0,3.0,94,0.02,,,0.06,0,weatherlink.com 1.10,2013-06-26 00:44:00,
2013-06-25 20:59:00,66.2,64.0,29.76,NW,307,3.0,4.0,93,0.01,,,0.06,0,weatherlink.com 1.10,2013-06-26 00:59:00,
2013-06-25 21:14:00,65.9,64.0,29.76,West,261,4.0,7.0,94,0.01,,,0.06,0,weatherlink.com 1.10,2013-06-26 01:14:00,
2013-06-25 21:29:00,66.8,64.0,29.75,West,259,3.0,7.0,91,0.01,,,0.06,0,weatherlink.com 1.10,2013-06-26 01:29:00,
2013-06-25 21:44:00,67.0,64.0,29.75,West,259,2.0,3.0,91,0.00,,,0.06,0,weatherlink.com 1.10,2013-06-26 01:44:00,
2013-06-25 21:59:00,65.7,64.0,29.75,West,259,0.0,2.0,94,0.00,,,0.06,0,weatherlink.com 1.10,2013-06-26 01:59:00,
2013-06-25 22:14:00,65.7,64.0,29.75,West,259,3.0,3.0,94,0.00,,,0.06,0,weatherlink.com 1.10,2013-06-26 02:14:00,
2013-06-25 22:29:00,66.0,64.0,29.76,West,259,3.0,4.0,94,0.00,,,0.06,0,weatherlink.com 1.10,2013-06-26 02:29:00,
2013-06-25 22:44:00,65.8,64.0,29.76,West,259,5.0,9.0,94,0.00,,,0.06,0,weatherlink.com 1.10,2013-06-26 02:44:00,
2013-06-25 22:59:00,65.3,65.0,29.75,WSW,253,9.0,13.0,97,0.00,,,0.06,0,weatherlink.com 1.10,2013-06-26 02:59:00,
2013-06-25 23:14:00,65.5,65.0,29.75,WSW,248,4.0,10.0,97,0.00,,,0.06,0,weatherlink.com 1.10,2013-06-26 03:14:00,
2013-06-25 23:29:00,65.6,65.0,29.75,WSW,240,7.0,9.0,98,0.00,,,0.06,0,weatherlink.com 1.10,2013-06-26 03:29:00,
2013-06-25 23:44:00,66.0,65.0,29.74,West,271,4.0,14.0,97,0.00,,,0.06,0,weatherlink.com 1.10,2013-06-26 03:44:00,
2013-06-25 23:59:00,66.1,65.0,29.74,West,262,5.0,11.0,96,0.00,,,0.06,0,weatherlink.com 1.10,2013-06-26 03:59:00,